WZZ4040 EPGD-ENGM

Flight info

Callsign WZZ4040
Flight time 1h 14m
Altitude 36000
Route VAPOS N133 PENOR DCT KSD Z259 ESEBA
Aircraft A321/M-SDE1E2E3FGIJ1J4RWXY/LB1

Departure

Time 2026-05-07 11:28
Airport Gdańsk Lech Wałęsa Airport (EPGD)

Arrival

Time 2026-05-07 12:42
Airport Oslo-Gardermoen International Airport (ENGM)
Time Latitude Longitude Altitude Speed Heading
2026-05-07 10:43 54.38171 18.46383 432 ft 0 kts 22°
2026-05-07 11:13 54.38161 18.46376 459 ft 2 kts 23°
2026-05-07 11:13 54.38142 18.46356 459 ft 4 kts 64°
2026-05-07 11:14 54.38141 18.46316 459 ft 4 kts 111°
2026-05-07 11:14 54.38145 18.46297 459 ft 1 kts 112°
2026-05-07 11:14 54.38145 18.46296 459 ft 0 kts 112°
2026-05-07 11:20 54.38145 18.46298 459 ft 1 kts 112°
2026-05-07 11:20 54.38137 18.46330 459 ft 5 kts 112°
2026-05-07 11:20 54.38121 18.46397 459 ft 8 kts 112°
2026-05-07 11:20 54.38097 18.46495 459 ft 10 kts 112°
2026-05-07 11:21 54.38058 18.46608 459 ft 12 kts 156°
2026-05-07 11:21 54.37969 18.46585 458 ft 14 kts 175°
2026-05-07 11:21 54.37912 18.46719 459 ft 16 kts 113°
2026-05-07 11:21 54.37867 18.46900 459 ft 17 kts 112°
2026-05-07 11:22 54.37819 18.47094 457 ft 15 kts 113°
2026-05-07 11:22 54.37780 18.47251 460 ft 15 kts 112°
2026-05-07 11:22 54.37738 18.47423 461 ft 16 kts 113°
2026-05-07 11:22 54.37695 18.47599 464 ft 16 kts 112°
2026-05-07 11:23 54.37651 18.47772 467 ft 16 kts 113°
2026-05-07 11:23 54.37609 18.47943 470 ft 15 kts 113°
2026-05-07 11:23 54.37568 18.48108 474 ft 15 kts 113°
2026-05-07 11:23 54.37529 18.48265 473 ft 14 kts 113°
2026-05-07 11:24 54.37494 18.48406 479 ft 12 kts 113°
2026-05-07 11:24 54.37463 18.48530 486 ft 10 kts 112°
2026-05-07 11:24 54.37438 18.48630 482 ft 7 kts 122°
2026-05-07 11:24 54.37396 18.48650 485 ft 6 kts 184°
2026-05-07 11:25 54.37375 18.48641 484 ft 0 kts 200°
2026-05-07 11:25 54.37372 18.48638 491 ft 2 kts 202°
2026-05-07 11:25 54.37352 18.48624 486 ft 4 kts 202°
2026-05-07 11:25 54.37321 18.48602 492 ft 5 kts 202°
2026-05-07 11:26 54.37290 18.48577 488 ft 5 kts 213°
2026-05-07 11:26 54.37288 18.48514 483 ft 7 kts 292°
2026-05-07 11:26 54.37295 18.48487 487 ft 0 kts 294°
2026-05-07 11:27 54.37313 18.48416 486 ft 27 kts 294°
2026-05-07 11:28 54.37499 18.47663 467 ft 107 kts 293°
2026-05-07 11:28 54.37878 18.46153 542 ft 157 kts 297°
2026-05-07 11:28 54.38300 18.44479 1358 ft 152 kts 299°
2026-05-07 11:28 54.38722 18.42803 2120 ft 154 kts 300°
2026-05-07 11:29 54.39135 18.41117 2778 ft 156 kts 299°
2026-05-07 11:29 54.39558 18.39375 3452 ft 156 kts 299°
2026-05-07 11:29 54.39981 18.37641 3977 ft 168 kts 298°
2026-05-07 11:29 54.40468 18.35675 4336 ft 190 kts 297°
2026-05-07 11:30 54.41011 18.33474 4651 ft 211 kts 297°
2026-05-07 11:30 54.41613 18.31028 4864 ft 235 kts 297°
2026-05-07 11:30 54.42371 18.28383 5181 ft 257 kts 307°
2026-05-07 11:30 54.43543 18.26037 5863 ft 261 kts 321°
2026-05-07 11:31 54.45027 18.24232 6669 ft 263 kts 329°
2026-05-07 11:31 54.46605 18.22585 7402 ft 268 kts 329°
2026-05-07 11:31 54.48207 18.20896 8162 ft 272 kts 328°
2026-05-07 11:31 54.49827 18.19179 8926 ft 276 kts 328°
2026-05-07 11:32 54.53169 18.15651 10283 ft 290 kts 327°
2026-05-07 11:32 54.54956 18.13758 10482 ft 313 kts 327°
2026-05-07 11:32 54.56866 18.11713 10726 ft 331 kts 327°
2026-05-07 11:33 54.58849 18.09607 11278 ft 338 kts 327°
2026-05-07 11:33 54.60785 18.07276 11901 ft 341 kts 320°
2026-05-07 11:33 54.62677 18.04789 12586 ft 344 kts 320°
2026-05-07 11:33 54.64591 18.02282 13241 ft 347 kts 320°
2026-05-07 11:34 54.66524 17.99747 13912 ft 350 kts 320°
2026-05-07 11:34 54.68470 17.97196 14522 ft 353 kts 320°
2026-05-07 11:34 54.70436 17.94624 15105 ft 356 kts 320°
2026-05-07 11:34 54.72390 17.92059 15678 ft 359 kts 320°
2026-05-07 11:35 54.74391 17.89435 16247 ft 363 kts 320°
2026-05-07 11:35 54.76408 17.86783 16846 ft 366 kts 320°
2026-05-07 11:35 54.78447 17.84106 17432 ft 370 kts 321°
2026-05-07 11:35 54.80658 17.81764 17992 ft 376 kts 331°
2026-05-07 11:36 54.83051 17.79872 18550 ft 380 kts 333°
2026-05-07 11:36 54.85480 17.78000 19060 ft 383 kts 333°
2026-05-07 11:36 54.87917 17.76085 19572 ft 386 kts 333°
2026-05-07 11:36 54.90374 17.74150 20080 ft 390 kts 333°
2026-05-07 11:37 54.92857 17.72194 20588 ft 393 kts 333°
2026-05-07 11:37 54.95354 17.70214 21110 ft 397 kts 332°
2026-05-07 11:37 54.97878 17.68220 21641 ft 399 kts 333°
2026-05-07 11:37 55.00431 17.66266 22152 ft 403 kts 333°
2026-05-07 11:38 55.03004 17.64298 22672 ft 406 kts 333°
2026-05-07 11:38 55.05599 17.62323 23195 ft 408 kts 332°
2026-05-07 11:38 55.08204 17.60332 23675 ft 410 kts 332°
2026-05-07 11:38 55.10829 17.58331 24068 ft 413 kts 332°
2026-05-07 11:39 55.13475 17.56312 24456 ft 416 kts 332°
2026-05-07 11:39 55.16131 17.54268 24828 ft 419 kts 332°
2026-05-07 11:39 55.18803 17.52195 25197 ft 422 kts 332°
2026-05-07 11:39 55.21499 17.50121 25557 ft 424 kts 332°
2026-05-07 11:40 55.24160 17.48019 25900 ft 427 kts 331°
2026-05-07 11:40 55.26869 17.45861 26263 ft 429 kts 331°
2026-05-07 11:40 55.29598 17.43680 26605 ft 432 kts 331°
2026-05-07 11:40 55.32340 17.41487 26955 ft 435 kts 331°
2026-05-07 11:41 55.35100 17.39290 27337 ft 437 kts 331°
2026-05-07 11:41 55.37873 17.37078 27706 ft 439 kts 330°
2026-05-07 11:41 55.40662 17.34854 28054 ft 441 kts 330°
2026-05-07 11:41 55.43458 17.32610 28384 ft 443 kts 330°
2026-05-07 11:42 55.46273 17.30344 28695 ft 446 kts 330°
2026-05-07 11:42 55.49102 17.28077 29002 ft 448 kts 330°
2026-05-07 11:42 55.51947 17.25793 29293 ft 450 kts 330°
2026-05-07 11:42 55.54806 17.23481 29580 ft 453 kts 330°
2026-05-07 11:43 55.57673 17.21157 29863 ft 455 kts 330°
2026-05-07 11:43 55.60558 17.18824 30133 ft 457 kts 330°
2026-05-07 11:43 55.63458 17.16466 30363 ft 459 kts 329°
2026-05-07 11:43 55.66322 17.13977 30675 ft 458 kts 327°
2026-05-07 11:44 55.69159 17.11416 30951 ft 458 kts 327°
2026-05-07 11:44 55.71042 17.09719 31108 ft 459 kts 327°
2026-05-07 11:44 55.73829 17.07210 31407 ft 459 kts 328°
2026-05-07 11:44 55.76673 17.04661 31760 ft 457 kts 328°
2026-05-07 11:45 55.79253 17.02320 32081 ft 455 kts 328°
2026-05-07 11:45 55.82072 16.99768 32405 ft 454 kts 328°
2026-05-07 11:45 55.84836 16.97268 32700 ft 454 kts 328°
2026-05-07 11:45 55.87652 16.94724 32990 ft 453 kts 328°
2026-05-07 11:46 55.90457 16.92171 33281 ft 453 kts 328°
2026-05-07 11:46 55.93265 16.89617 33571 ft 453 kts 328°
2026-05-07 11:46 55.96070 16.87072 33881 ft 452 kts 328°
2026-05-07 11:46 55.98867 16.84534 34200 ft 450 kts 328°
2026-05-07 11:47 56.01653 16.81986 34443 ft 449 kts 328°
2026-05-07 11:47 56.04295 16.79561 34656 ft 449 kts 328°
2026-05-07 11:47 56.06981 16.77109 34846 ft 449 kts 328°
2026-05-07 11:47 56.09763 16.74554 35047 ft 449 kts 328°
2026-05-07 11:48 56.12506 16.72018 35230 ft 450 kts 328°
2026-05-07 11:48 56.15290 16.69459 35419 ft 450 kts 328°
2026-05-07 11:48 56.18078 16.66895 35605 ft 450 kts 328°
2026-05-07 11:48 56.20864 16.64319 35785 ft 451 kts 328°
2026-05-07 11:49 56.23654 16.61742 35973 ft 450 kts 328°
2026-05-07 11:49 56.26433 16.59163 36080 ft 449 kts 328°
2026-05-07 11:49 56.29206 16.56590 36093 ft 448 kts 328°
2026-05-07 11:50 56.34729 16.51453 36093 ft 446 kts 328°
2026-05-07 11:50 56.40241 16.46291 36092 ft 446 kts 328°
2026-05-07 11:51 56.45752 16.41133 36086 ft 446 kts 328°
2026-05-07 11:51 56.51261 16.35954 36103 ft 446 kts 328°
2026-05-07 11:52 56.56765 16.30752 36103 ft 446 kts 328°
2026-05-07 11:52 56.62274 16.25553 36121 ft 446 kts 328°
2026-05-07 11:53 56.67771 16.20335 36110 ft 445 kts 328°
2026-05-07 11:53 56.73261 16.15109 36108 ft 445 kts 328°
2026-05-07 11:54 56.78745 16.09873 36106 ft 445 kts 327°
2026-05-07 11:54 56.84222 16.04622 36098 ft 445 kts 327°
2026-05-07 11:55 56.89656 15.99390 36112 ft 444 kts 328°
2026-05-07 11:55 56.95090 15.94157 36078 ft 438 kts 328°
2026-05-07 11:56 57.00473 15.88917 36065 ft 438 kts 328°
2026-05-07 11:56 57.05859 15.83698 36065 ft 438 kts 328°
2026-05-07 11:57 57.11248 15.78460 36064 ft 438 kts 328°
2026-05-07 11:57 57.16621 15.73205 36064 ft 437 kts 328°
2026-05-07 11:58 57.21990 15.67933 36074 ft 437 kts 328°
2026-05-07 11:58 57.27351 15.62651 36097 ft 437 kts 328°
2026-05-07 11:59 57.32706 15.57373 36080 ft 436 kts 328°
2026-05-07 11:59 57.38049 15.52081 36078 ft 435 kts 328°
2026-05-07 12:00 57.43369 15.46776 36072 ft 434 kts 328°
2026-05-07 12:00 57.48694 15.41478 36079 ft 434 kts 328°
2026-05-07 12:01 57.54006 15.36145 36078 ft 434 kts 328°
2026-05-07 12:01 57.59318 15.30818 36083 ft 433 kts 328°
2026-05-07 12:02 57.64579 15.25515 36076 ft 432 kts 328°
2026-05-07 12:02 57.69856 15.20149 36084 ft 431 kts 328°
2026-05-07 12:03 57.75136 15.14817 36080 ft 431 kts 328°
2026-05-07 12:03 57.80395 15.09469 36079 ft 430 kts 328°
2026-05-07 12:04 57.85652 15.04107 36077 ft 430 kts 328°
2026-05-07 12:04 57.90898 14.98747 36080 ft 429 kts 328°
2026-05-07 12:05 57.96121 14.93343 36083 ft 428 kts 328°
2026-05-07 12:05 58.01343 14.87964 36083 ft 428 kts 327°
2026-05-07 12:06 58.06560 14.82564 36097 ft 427 kts 328°
2026-05-07 12:06 58.11767 14.77176 36094 ft 426 kts 327°
2026-05-07 12:07 58.16960 14.71758 36092 ft 426 kts 327°
2026-05-07 12:07 58.22125 14.66354 36083 ft 422 kts 327°
2026-05-07 12:08 58.27215 14.61019 36076 ft 421 kts 327°
2026-05-07 12:08 58.32337 14.55632 36079 ft 421 kts 327°
2026-05-07 12:09 58.37484 14.50189 36095 ft 421 kts 327°
2026-05-07 12:09 58.42565 14.44806 36097 ft 421 kts 327°
2026-05-07 12:10 58.47676 14.39355 36102 ft 420 kts 327°
2026-05-07 12:10 58.52790 14.33927 36123 ft 420 kts 326°
2026-05-07 12:11 58.57873 14.28488 36086 ft 418 kts 326°
2026-05-07 12:11 58.62950 14.23040 36087 ft 418 kts 326°
2026-05-07 12:12 58.68028 14.17564 36103 ft 419 kts 326°
2026-05-07 12:12 58.73103 14.12061 36104 ft 419 kts 326°
2026-05-07 12:13 58.78186 14.06563 36096 ft 419 kts 326°
2026-05-07 12:13 58.83260 14.01038 36112 ft 419 kts 326°
2026-05-07 12:14 58.88323 13.95497 36120 ft 418 kts 325°
2026-05-07 12:14 58.93386 13.89969 36116 ft 418 kts 326°
2026-05-07 12:15 58.98443 13.84392 36113 ft 418 kts 325°
2026-05-07 12:15 59.03502 13.78816 36113 ft 418 kts 325°
2026-05-07 12:16 59.08567 13.73230 36118 ft 418 kts 325°
2026-05-07 12:16 59.13621 13.67612 36105 ft 418 kts 325°
2026-05-07 12:16 59.16149 13.64799 35937 ft 418 kts 325°
2026-05-07 12:17 59.18681 13.61962 35131 ft 423 kts 324°
2026-05-07 12:17 59.21200 13.59146 34477 ft 421 kts 325°
2026-05-07 12:17 59.23720 13.56334 34028 ft 414 kts 324°
2026-05-07 12:17 59.26199 13.53552 33465 ft 408 kts 324°
2026-05-07 12:18 59.28641 13.50812 32970 ft 401 kts 324°
2026-05-07 12:18 59.31034 13.48106 32494 ft 395 kts 324°
2026-05-07 12:18 59.33398 13.45440 32026 ft 389 kts 324°
2026-05-07 12:18 59.35724 13.42812 31564 ft 382 kts 324°
2026-05-07 12:19 59.38006 13.40230 31107 ft 376 kts 324°
2026-05-07 12:19 59.40254 13.37685 30657 ft 370 kts 324°
2026-05-07 12:19 59.42467 13.35182 30220 ft 364 kts 324°
2026-05-07 12:19 59.44643 13.32708 29709 ft 358 kts 324°
2026-05-07 12:20 59.46790 13.30314 29307 ft 352 kts 325°
2026-05-07 12:20 59.48911 13.27959 28872 ft 347 kts 325°
2026-05-07 12:20 59.51003 13.25652 28496 ft 343 kts 324°
2026-05-07 12:20 59.53076 13.23351 28036 ft 340 kts 324°
2026-05-07 12:21 59.55121 13.21070 27629 ft 336 kts 324°
2026-05-07 12:21 59.57143 13.18806 27223 ft 332 kts 324°
2026-05-07 12:21 59.59143 13.16571 26823 ft 329 kts 324°
2026-05-07 12:21 59.61121 13.14362 26414 ft 325 kts 324°
2026-05-07 12:22 59.63076 13.12177 26017 ft 321 kts 324°
2026-05-07 12:22 59.65005 13.10006 25615 ft 317 kts 323°
2026-05-07 12:22 59.66911 13.07859 25225 ft 314 kts 323°
2026-05-07 12:22 59.68803 13.05726 24837 ft 312 kts 323°
2026-05-07 12:23 59.70713 13.03568 24554 ft 325 kts 323°
2026-05-07 12:23 59.72711 13.01301 24314 ft 335 kts 324°
2026-05-07 12:23 59.74740 12.98997 24074 ft 337 kts 324°
2026-05-07 12:23 59.76779 12.96700 23831 ft 337 kts 324°
2026-05-07 12:24 59.78822 12.94410 23590 ft 337 kts 324°
2026-05-07 12:24 59.80851 12.92106 23306 ft 336 kts 324°
2026-05-07 12:24 59.82873 12.89813 23024 ft 335 kts 324°
2026-05-07 12:24 59.84885 12.87520 22788 ft 331 kts 323°
2026-05-07 12:25 59.86877 12.85238 22510 ft 329 kts 324°
2026-05-07 12:25 59.88862 12.82970 22233 ft 329 kts 324°
2026-05-07 12:25 59.90842 12.80706 21964 ft 328 kts 324°
2026-05-07 12:25 59.92817 12.78435 21693 ft 328 kts 324°
2026-05-07 12:26 59.94792 12.76181 21428 ft 327 kts 324°
2026-05-07 12:26 59.96760 12.73919 21158 ft 325 kts 322°
2026-05-07 12:26 59.98526 12.71196 20887 ft 318 kts 310°
2026-05-07 12:26 59.99900 12.67800 20633 ft 313 kts 301°
2026-05-07 12:27 60.01102 12.64244 20375 ft 313 kts 301°
2026-05-07 12:27 60.02320 12.60648 20110 ft 312 kts 301°
2026-05-07 12:27 60.03541 12.57060 19868 ft 312 kts 301°
2026-05-07 12:27 60.04755 12.53480 19589 ft 308 kts 301°
2026-05-07 12:28 60.05951 12.49957 19159 ft 305 kts 301°
2026-05-07 12:28 60.07131 12.46454 18693 ft 303 kts 301°
2026-05-07 12:28 60.08306 12.42972 18225 ft 300 kts 301°
2026-05-07 12:28 60.09464 12.39509 17733 ft 298 kts 301°
2026-05-07 12:29 60.10614 12.36081 17273 ft 295 kts 301°
2026-05-07 12:29 60.11751 12.32686 16822 ft 292 kts 301°
2026-05-07 12:29 60.12881 12.29331 16385 ft 289 kts 301°
2026-05-07 12:29 60.13997 12.25995 15943 ft 287 kts 301°
2026-05-07 12:30 60.15107 12.22665 15494 ft 286 kts 301°
2026-05-07 12:30 60.16207 12.19357 15063 ft 283 kts 301°
2026-05-07 12:30 60.17305 12.16071 14547 ft 285 kts 302°
2026-05-07 12:30 60.18410 12.12760 14062 ft 285 kts 302°
2026-05-07 12:31 60.19510 12.09453 13584 ft 284 kts 302°
2026-05-07 12:31 60.20599 12.06157 13151 ft 282 kts 302°
2026-05-07 12:31 60.21685 12.02875 12706 ft 281 kts 302°
2026-05-07 12:31 60.22763 11.99617 12276 ft 279 kts 302°
2026-05-07 12:32 60.23834 11.96384 11849 ft 277 kts 302°
2026-05-07 12:32 60.24900 11.93169 11419 ft 275 kts 302°
2026-05-07 12:32 60.25954 11.89960 11001 ft 274 kts 302°
2026-05-07 12:32 60.27006 11.86755 10594 ft 274 kts 303°
2026-05-07 12:33 60.29116 11.80334 9637 ft 278 kts 303°
2026-05-07 12:33 60.30183 11.77083 9153 ft 278 kts 303°
2026-05-07 12:33 60.31249 11.73836 8712 ft 277 kts 303°
2026-05-07 12:34 60.32308 11.70599 8287 ft 275 kts 303°
2026-05-07 12:34 60.33005 11.68468 8006 ft 275 kts 303°
2026-05-07 12:34 60.34051 11.65258 7587 ft 273 kts 302°
2026-05-07 12:34 60.35089 11.62056 7183 ft 271 kts 302°
2026-05-07 12:35 60.36116 11.58881 6785 ft 269 kts 302°
2026-05-07 12:35 60.37140 11.55720 6378 ft 268 kts 302°
2026-05-07 12:35 60.38160 11.52571 5980 ft 267 kts 302°
2026-05-07 12:35 60.39176 11.49438 5565 ft 266 kts 303°
2026-05-07 12:36 60.40192 11.46307 5176 ft 266 kts 302°
2026-05-07 12:36 60.41175 11.43207 5013 ft 256 kts 298°
2026-05-07 12:36 60.41743 11.39944 4988 ft 239 kts 278°
2026-05-07 12:36 60.41703 11.36602 4660 ft 239 kts 258°
2026-05-07 12:37 60.41306 11.33376 4369 ft 232 kts 256°
2026-05-07 12:37 60.40906 11.30228 4050 ft 227 kts 256°
2026-05-07 12:37 60.40515 11.27235 3993 ft 212 kts 251°
2026-05-07 12:37 60.39789 11.24738 3995 ft 204 kts 227°
2026-05-07 12:38 60.38634 11.23129 4009 ft 203 kts 204°
2026-05-07 12:38 60.37290 11.22248 4007 ft 203 kts 197°
2026-05-07 12:38 60.35932 11.21451 3960 ft 204 kts 197°
2026-05-07 12:38 60.34576 11.20655 3723 ft 202 kts 197°
2026-05-07 12:39 60.33249 11.19880 3483 ft 195 kts 197°
2026-05-07 12:39 60.31966 11.19132 3194 ft 189 kts 197°
2026-05-07 12:39 60.30720 11.18406 2927 ft 184 kts 197°
2026-05-07 12:39 60.29533 11.17715 2694 ft 170 kts 197°
2026-05-07 12:40 60.28437 11.17078 2466 ft 159 kts 198°
2026-05-07 12:40 60.27422 11.16488 2250 ft 147 kts 197°
2026-05-07 12:40 60.26451 11.15923 2050 ft 144 kts 197°
2026-05-07 12:40 60.25511 11.15376 1851 ft 141 kts 197°
2026-05-07 12:41 60.24568 11.14828 1663 ft 141 kts 197°
2026-05-07 12:41 60.23624 11.14280 1458 ft 141 kts 197°
2026-05-07 12:41 60.22664 11.13724 1264 ft 142 kts 197°
2026-05-07 12:41 60.21728 11.13181 1067 ft 142 kts 197°
2026-05-07 12:42 60.20763 11.12618 846 ft 143 kts 196°
2026-05-07 12:42 60.19822 11.12077 704 ft 143 kts 196°
2026-05-07 12:42 60.18980 11.11591 684 ft 104 kts 196°
2026-05-07 12:42 60.18547 11.11319 683 ft 32 kts 207°
2026-05-07 12:43 60.18436 11.11074 682 ft 16 kts 264°
2026-05-07 12:43 60.18448 11.10965 679 ft 0 kts 288°
2026-05-07 12:43 60.18449 11.10963 680 ft 1 kts 288°
2026-05-07 12:43 60.18453 11.10939 681 ft 3 kts 287°
2026-05-07 12:44 60.18459 11.10890 679 ft 5 kts 285°
2026-05-07 12:44 60.18475 11.10785 678 ft 10 kts 293°
2026-05-07 12:44 60.18539 11.10772 682 ft 11 kts 16°
2026-05-07 12:44 60.18619 11.10818 682 ft 13 kts 16°
2026-05-07 12:45 60.18716 11.10874 683 ft 16 kts 16°
2026-05-07 12:45 60.18821 11.10935 683 ft 18 kts 16°
2026-05-07 12:45 60.18947 11.11008 683 ft 20 kts 16°
2026-05-07 12:45 60.19089 11.11089 682 ft 22 kts 16°
2026-05-07 12:46 60.19239 11.11175 684 ft 23 kts 16°
2026-05-07 12:46 60.19398 11.11269 684 ft 25 kts 16°
2026-05-07 12:46 60.19494 11.11224 677 ft 15 kts 289°
2026-05-07 12:46 60.19527 11.11003 683 ft 17 kts 286°
2026-05-07 12:47 60.19560 11.10765 683 ft 19 kts 285°
2026-05-07 12:47 60.19598 11.10503 680 ft 15 kts 287°
2026-05-07 12:47 60.19643 11.10428 685 ft 5 kts 328°
2026-05-07 12:47 60.19658 11.10370 683 ft 5 kts 287°
2026-05-07 12:48 60.19672 11.10276 683 ft 9 kts 286°
2026-05-07 12:48 60.19679 11.10226 685 ft 0 kts 286°